THOR ABLESTAR DEB, 210

Orbit data source: Space-Track

THOR ABLESTAR DEB, 210 is space debris in LEO originally from a launch on Thu, 29 Jun 1961 UTC launched from the Air Force Eastern Test Range (AFETR). Debris objects in space refer to the collection of defunct objects orbiting the Earth. Examples of debris include non-operational satellites, rocket bodies, and fragments generated from explosions, collisions, or faulty payload assembly.

Loading next visibility...
Identifier
210, 1961-015BE
Orbit
LEO
Country
Flag of USUS
Related business
Manufacturer
Unknown
Mission
Spacecraft
Bus & Motor
Unknown
Mass
Unknown
Launch date (UTC)
1961-06-29 (65 years ago)
Launch vehicle
Unknown
Launch site
Air Force Eastern Test Range (AFETR)
Object type
Payload
Rocket body
Debris
Shape & HBR
Unknown shape, 0.2 m
Radar Cross Section
Medium (>0.1 m² and <1 m²)

Expand to show TLE details & history
Last TLE update: 1 day ago

TLE from 1 day ago
0 THOR ABLESTAR DEB
1 00210U 61015BE  26071.72362709  .00000668  00000-0  61122-3 0  9993
2 00210  66.4552 243.6376 0045929   6.6970 353.4708 13.88970768252007
Epoch: 2026-03-12T17:22Z
TLE epoch observation values (Epoch: 2026-03-12T17:22:01.380Z)
Latitude
-0.00008°
Longitude
172.7624°
Altitude
900.928 km
Speed
7.419 km/s
True Right ascension
16h 14m 33s
True Declination
0° 00' 00"
Sunlit
Object was in daylight at epoch
Visualization orbit readout
Latitude
Unknown
Longitude
Unknown
Altitude
Unknown
Speed
Unknown
Apparent Right ascension
Unknown
Apparent Declination
Unknown
Sunlit
N/A
Visualization observer readout
Local Sidereal Time
07:12:15
Azimuth
Unknown
Elevation
Unknown
Doppler factor
Unknown
Orbital elements
Apogee altitude
964.243 km
Perigee altitude
897.106 km
Semi-major axis
7,308.811 km
Eccentricity
0.00459
Inclination
66.4552°
RAAN
243.6376°
Arg. of periapsis
6.697°
True anomaly
353.41061°
Mean anomaly
353.4708°
Eccentric anomaly
353.44074°
Mean motion
3.47355 °/min
Orbital period
103.64 mins
BSTAR
0.00061122
Loading maneuver chart data...
Computing Atmospheric mass density...
Loading historical data...
Loading historical data...
Loading historical data...
Loading historical data...
Loading historical data...
Loading historical data...
Loading historical data...

Documentation

Showing up to 5 results
|